STARLINK-1119

decayed
NORAD ID: 44928 Int'l Des: 2020-001 Owner: SPXS Country: US Constellation: starlink
LEOCIRCULAR

关于 STARLINK-1119

正在加载描述...

高度历史

Altitude vs Time

uPlot chart will show altitude changes over time

两行轨道根数

1 44928U 20001Q 24136.08916718 .17779497 12124-4 38190-2 0 9994
2 44928 53.0443 3.6776 0007991 287.9366 247.4073 16.29846001240969
Epoch: May 15, 2024 • Age: 11728 hours

当前状态

Position data unavailable
发射日期 Jan 7, 2020
运行时间 5.6 years
衰减日期 May 15, 2024
类型 internet

技术详情

分类 Payload
质量 260.00 kg
干质量 248.00 kg
总质量 260.00 kg
长度 0.20 m
直径 2.80 m
跨度 9.00 m
形状 Box + pan
制造商 SPXS
平台类型 Starlink
阶段状态 Unknown Transfer Status
所有者/国家 SPXS/US

大型星座

Loading constellations...